This is the latest recevied weather packets stored in our database for station/object WD4IXD. If no packets are shown the sender has not sent any weather packets the latest 10 day(s).
| Time | Temp. | Humidity | Pressure | Rain* | Wind** | Luminosity | Snow |
|---|---|---|---|---|---|---|---|
| 1778106616 | 3.89° C | 74% | 1019.3 hPa | 2.29 mm | - | 647 W/m² | - |
| 1778106304 | 3.33° C | 75% | 1019.3 hPa | 2.29 mm | - | 661 W/m² | - |
| 1778106015 | 3.33° C | 75% | 1019.5 hPa | 2.29 mm | - | 677 W/m² | - |
| 1778105704 | 3.33° C | 75% | 1019.5 hPa | 2.29 mm | - | 693 W/m² | - |
| 1778105404 | 2.78° C | 77% | 1019.6 hPa | 2.03 mm | - | 714 W/m² | - |
| 1778105115 | 2.78° C | 77% | 1019.6 hPa | 2.29 mm | - | 819 W/m² | - |
| 1778104815 | 2.78° C | 77% | 1019.6 hPa | 2.29 mm | - | 513 W/m² | - |
| 1778104504 | 2.78° C | 78% | 1019.6 hPa | 2.03 mm | - | 540 W/m² | - |
| 1778104215 | 2.78° C | 78% | 1019.7 hPa | 2.03 mm | - | 615 W/m² | - |
| 1778103903 | 2.22° C | 77% | 1019.8 hPa | 2.03 mm | - | 564 W/m² | - |
| 1778103615 | 2.78° C | 78% | 1019.8 hPa | 2.03 mm | - | 454 W/m² | - |
| 1778103304 | 2.78° C | 78% | 1019.8 hPa | 2.03 mm | - | 536 W/m² | - |
| 1778103016 | 2.78° C | 77% | 1019.9 hPa | 2.03 mm | - | 411 W/m² | - |
| 1778102704 | 2.78° C | 78% | 1019.9 hPa | 2.03 mm | - | 455 W/m² | - |
| 1778102415 | 2.78° C | 78% | 1020 hPa | 2.03 mm | - | 489 W/m² | - |
| 1778102104 | 3.33° C | 81% | 1020 hPa | 2.03 mm | - | 316 W/m² | - |
| 1778101815 | 3.33° C | 77% | 1019.9 hPa | 2.03 mm | - | 346 W/m² | - |
| 1778101504 | 3.33° C | 79% | 1019.9 hPa | 2.03 mm | - | 309 W/m² | - |
| 1778101216 | 3.33° C | 79% | 1020 hPa | 2.03 mm | - | 299 W/m² | - |
| 1778100904 | 3.33° C | 80% | 1020.1 hPa | 2.03 mm | - | 290 W/m² | - |
| 1778100603 | 3.33° C | 81% | 1020.1 hPa | 2.03 mm | - | 322 W/m² | - |
| 1778100315 | 3.33° C | 81% | 1020.1 hPa | 2.03 mm | - | 350 W/m² | - |
| 1778100004 | 3.33° C | 82% | 1020.2 hPa | 2.29 mm | - | 366 W/m² | - |
| 1778099704 | 3.33° C | 83% | 1020.2 hPa | 2.29 mm | - | 323 W/m² | - |
| 1778099404 | 3.33° C | 83% | 1020.2 hPa | 2.29 mm | - | 327 W/m² | - |
* Rain latest hour (hover to see other rain measurements)
** Current wind speed in m/s (hover to see current wind gust speed)